Terug naar catalogus

FENGYUN 1C DEB

ActiefSSO
NORAD 33651·DEBRIS·🇨🇳 China

Gelanceerd May 10, 1999 vanaf Taiyuan Satellite Launch Center

Loading…

Volgende Passages (komende 24 uur)

TLE

VersSource: Space-Track

Epoch: Sep 11, 2026, 09:11 UTC

1 33651U 99025DEL 26254.38314527  .00000157  00000-0  87176-4 0  9991
2 33651  98.6209 298.7210 0116355 346.3287  13.4747 14.20531254681421

Volg FENGYUN 1C DEB in realtime met AllMySat

Download on the App Store